GFSFLT1_sfc_30mbdewp_060.txt.gz
Dewpoint
51 52 53 55 55 56 55 55 55 55 55 55 54 54 55 56 56 55 54 54 53 53 54 53 54 54 53 52 51 50 48 46
51 52 53 53 54 54 54 54 54 53 53 53 53 52 52 54 55 55 55 55 55 56 55 55 56 55 54 53 52 50 49 47
50 49 51 52 52 53 53 53 53 54 54 53 53 52 51 52 52 54 55 56 57 57 57 56 57 56 55 54 52 51 50 46
49 48 50 52 51 52 52 52 53 53 53 52 48 48 51 49 50 50 51 52 54 56 56 57 56 56 54 53 52 51 50 47
49 48 48 51 51 52 52 52 52 51 52 51 49 48 49 48 48 50 51 51 52 53 55 55 56 56 55 54 53 51 50 48
50 49 48 49 51 51 51 51 51 51 50 49 49 47 46 47 49 48 50 51 52 53 54 55 55 56 55 55 54 52 51 50
50 50 49 50 51 51 51 50 50 50 51 51 49 48 46 45 45 47 48 50 51 53 54 55 55 55 56 55 55 54 53 51
50 50 49 49 49 50 51 51 50 49 50 51 51 49 48 46 45 46 47 48 50 51 54 55 55 56 56 56 56 56 55 53
49 50 50 49 49 50 50 50 50 50 49 49 50 51 50 48 47 48 48 49 50 52 53 54 55 56 56 57 57 56 55 54
48 49 49 49 49 49 50 49 50 50 50 49 48 49 51 51 49 48 49 52 52 53 53 54 55 56 56 56 56 55 54 53
48 49 49 49 48 49 50 49 49 49 49 49 48 48 49 50 51 50 49 50 53 54 54 54 55 55 55 55 53 52 52 50
47 48 49 49 48 49 49 49 48 48 48 48 49 48 48 49 49 50 51 52 55 55 55 56 56 55 55 54 52 51 51 49
44 48 49 49 48 48 48 48 48 48 48 47 47 48 48 48 48 49 51 52 55 55 56 56 57 55 53 52 51 50 49 48
42 45 49 49 49 49 49 49 48 48 49 47 47 47 47 48 48 49 51 53 55 56 56 56 56 54 53 52 51 50 48 47
36 42 46 49 49 49 49 50 50 49 49 49 48 48 48 48 50 52 53 55 54 55 56 56 56 53 52 51 50 48 46 46
30 38 43 46 49 49 49 49 50 51 51 50 50 50 50 52 53 54 55 55 55 55 56 55 53 51 50 49 48 46 45 44
26 32 40 43 47 49 50 50 50 51 52 52 51 52 52 53 55 55 56 56 56 57 55 53 51 50 48 47 46 45 44 43
28 28 35 39 43 47 49 50 52 52 52 52 52 53 53 54 55 56 56 56 55 53 51 50 49 47 45 44 43 43 42 42
29 29 30 39 42 44 45 47 49 52 53 53 53 54 54 55 56 55 54 52 51 49 48 47 46 44 42 42 41 41 40 40

GFSFLT1_sfc_30mbdewp_063.txt.gz
Dewpoint
50 51 53 56 56 56 56 57 56 56 57 57 57 56 57 59 57 55 55 54 54 54 53 54 54 52 54 53 51 51 47 46
51 51 53 55 55 55 55 55 56 56 56 55 55 56 56 56 57 56 55 54 54 54 55 54 55 54 53 54 54 52 50 49
51 49 52 53 54 55 55 54 55 56 56 55 53 55 55 56 56 56 55 55 54 55 55 56 55 55 55 55 54 53 52 49
49 49 50 52 52 54 54 54 54 55 55 54 53 52 52 53 54 54 55 55 57 57 57 57 57 58 56 56 55 54 53 51
49 49 49 51 52 53 54 53 54 54 55 53 53 51 51 52 52 53 55 56 56 56 56 58 58 58 57 57 56 55 54 52
49 49 49 50 51 52 53 53 53 53 53 52 50 51 51 50 51 51 52 53 54 53 51 53 56 55 57 57 56 55 54 53
50 50 49 49 51 52 52 52 52 52 52 52 50 49 49 50 49 50 51 52 52 53 53 55 56 56 57 57 57 56 55 54
50 50 49 49 50 51 51 51 51 51 51 51 50 50 49 50 48 49 50 51 51 53 54 55 56 56 56 57 57 56 56 55
50 50 49 49 50 50 51 50 50 51 51 50 50 50 50 49 48 48 49 50 50 52 53 53 54 56 56 57 57 57 57 55
49 50 50 49 49 50 50 50 50 51 51 51 51 51 50 49 49 50 49 50 50 51 52 53 54 55 56 57 57 57 57 56
48 50 50 50 49 50 50 50 50 50 51 51 50 50 51 51 51 50 50 50 50 51 51 52 53 54 55 56 56 57 56 56
47 49 50 50 49 49 50 50 50 50 51 51 50 50 50 51 51 52 52 51 51 51 51 51 51 52 55 56 56 56 54 55
45 48 49 49 49 49 49 50 50 50 51 51 51 51 50 50 50 50 52 52 52 51 52 52 53 54 55 55 55 54 52 52
41 47 48 49 49 49 49 49 50 49 50 50 50 51 51 50 50 50 50 51 51 52 52 53 53 53 54 55 55 53 52 52
33 43 47 48 49 49 49 50 50 49 49 48 48 49 50 50 50 50 50 51 51 51 53 53 53 54 55 55 53 52 51 51
29 34 42 47 49 50 50 50 50 50 49 48 48 49 49 49 49 50 50 50 51 51 52 53 55 55 55 55 53 52 50 48
31 31 35 43 47 49 50 50 51 51 50 49 49 50 49 49 49 49 50 51 51 52 53 54 55 55 54 52 53 51 49 46
31 31 32 38 43 47 49 50 51 51 51 51 51 50 51 51 51 51 52 53 54 54 55 55 56 54 51 49 48 48 46 45
31 31 31 33 39 44 48 49 51 51 51 51 52 52 52 52 53 53 54 55 55 55 55 53 53 50 47 45 45 44 43 42

GFSFLT1_sfc_30mbdewp_069.txt.gz
Dewpoint
46 49 52 56 58 59 58 58 58 58 59 59 58 58 59 59 58 56 56 55 55 53 52 55 53 50 49 49 48 48 47 46
47 49 51 55 57 58 57 56 57 57 58 57 56 56 57 58 57 56 54 53 53 53 51 55 55 53 52 52 51 51 49 48
47 49 51 53 56 57 57 56 56 57 56 56 56 55 56 54 55 57 53 51 51 50 50 52 54 54 54 54 54 53 52 52
47 48 50 52 54 55 57 56 56 56 56 55 56 56 55 53 54 56 56 54 53 51 52 54 55 53 55 56 56 55 52 54
46 48 48 51 54 56 56 56 56 55 56 54 54 53 54 53 52 54 54 56 54 54 55 55 55 54 54 56 56 56 54 52
45 47 47 49 53 55 56 56 56 56 56 54 54 53 52 53 51 52 54 54 56 53 56 56 54 56 56 56 56 56 56 51
45 46 47 46 52 54 55 56 56 56 56 56 54 53 51 51 54 51 53 55 55 55 56 56 56 57 57 56 55 54 54 54
44 45 46 45 48 52 54 55 55 56 56 55 55 54 51 50 53 54 52 54 55 54 56 54 53 53 53 55 55 55 54 54
44 44 46 45 47 50 52 52 53 55 56 55 55 54 52 51 51 53 54 54 53 53 54 54 53 53 54 53 54 53 54 55
43 44 46 46 46 49 51 51 51 53 55 55 55 55 54 54 53 54 54 53 52 52 52 53 53 53 53 52 51 52 53 55
42 44 46 47 47 47 50 51 50 50 54 55 55 54 54 53 53 53 54 54 53 52 53 53 52 52 52 52 50 52 53 54
41 43 46 47 48 47 49 50 49 49 51 53 54 54 54 54 53 53 53 54 54 53 54 53 53 52 52 52 51 52 52 53
40 43 45 48 48 48 48 49 49 49 50 51 53 54 54 54 54 53 53 53 54 53 53 53 52 52 52 51 51 51 51 52
35 42 44 46 48 49 48 49 48 48 49 50 52 53 54 54 54 54 54 53 53 53 51 51 51 51 52 52 52 52 52 52
31 36 41 44 47 48 49 49 49 48 48 49 51 53 53 54 54 54 54 54 53 53 52 51 52 51 51 51 51 52 52 52
28 30 36 41 45 47 49 49 50 50 49 48 49 52 53 53 54 54 54 54 54 53 53 53 53 53 52 52 52 52 51 51
29 31 31 31 38 44 46 48 50 50 50 50 49 51 51 52 53 54 54 54 54 53 53 53 53 53 51 50 51 53 52 53
33 32 31 33 34 35 43 46 48 50 51 51 50 51 51 52 53 53 53 54 54 54 53 53 53 54 52 50 49 52 53 53
38 36 35 34 37 35 36 40 46 48 49 50 50 51 51 51 52 52 53 53 54 54 54 54 54 53 52 50 49 52 53 53

GFSFLT1_sfc_30mbdewp_072.txt.gz
Dewpoint
47 48 51 55 57 58 58 58 59 58 59 59 58 58 58 58 58 59 57 57 56 56 57 54 56 54 53 52 50 50 48 47
46 49 52 55 58 58 58 57 58 58 58 57 57 56 57 56 57 57 58 58 55 56 56 57 54 53 52 53 53 51 51 50
47 49 52 54 55 57 57 56 57 57 58 57 57 57 56 55 55 57 57 57 55 54 55 55 55 54 52 53 52 53 52 51
46 48 50 54 54 56 56 57 57 57 57 57 56 56 56 55 54 55 56 55 55 54 54 54 55 55 54 54 54 53 52 53
46 48 50 52 54 55 57 56 56 57 57 56 55 54 53 52 50 52 56 55 54 53 54 54 55 55 56 56 57 55 55 51
45 47 49 51 54 54 57 56 56 56 56 55 55 54 53 52 49 49 55 55 54 54 54 56 56 55 57 57 56 56 54 53
44 47 48 50 54 54 56 56 56 55 56 55 55 54 53 52 51 50 54 54 56 55 56 57 57 57 56 55 56 55 55 53
44 46 47 48 53 54 56 56 55 56 56 55 55 55 54 54 51 50 52 53 54 55 55 56 55 56 58 57 57 55 54 53
43 46 46 46 53 54 54 55 55 56 56 56 55 55 53 54 53 51 50 52 54 55 56 55 55 55 55 55 54 55 55 55
43 45 46 46 49 53 54 55 55 56 56 56 56 55 55 53 53 54 52 52 53 54 55 55 54 52 53 53 54 54 53 54
42 44 46 47 48 51 54 53 53 55 55 56 56 55 55 53 52 53 55 54 54 54 54 55 54 53 52 52 52 52 53 53
41 44 46 47 48 50 52 53 51 54 55 55 55 55 55 55 54 53 53 55 55 53 53 53 53 52 52 52 52 52 52 51
41 43 46 47 48 48 51 52 52 51 54 55 55 55 55 55 55 54 55 54 55 54 53 53 52 52 52 52 52 51 51 50
39 43 45 47 48 48 48 51 51 51 52 53 55 55 55 55 55 55 54 54 54 54 53 52 52 52 52 52 51 51 51 50
31 39 43 46 48 49 49 50 51 51 50 51 53 55 55 55 55 55 54 55 53 53 54 53 53 53 52 52 51 51 51 51
30 32 36 42 46 49 50 50 50 51 50 49 51 53 55 55 55 55 55 54 54 53 53 53 53 53 52 52 52 52 52 52
36 35 34 33 40 46 48 50 51 51 50 49 50 51 53 54 55 55 55 55 55 54 54 53 53 52 50 49 50 51 51 51
40 41 41 40 38 40 40 48 51 51 51 51 51 50 51 53 54 54 54 55 55 55 54 54 54 53 52 50 49 51 52 52
42 44 45 47 48 49 49 47 41 50 51 51 52 52 51 51 53 53 54 54 54 54 54 54 54 54 53 52 50 50 51 52

GFSFLT1_sfc_30mbdewp_075.txt.gz
Dewpoint
49 53 55 58 59 58 57 57 58 59 59 60 59 59 59 59 58 58 58 57 57 56 58 57 57 54 56 52 51 50 49 48
50 54 55 58 58 58 57 58 58 58 57 57 57 56 58 58 58 57 58 57 57 57 58 57 58 56 55 52 51 49 49 48
49 54 55 57 57 57 57 57 57 58 57 57 57 57 57 58 57 57 56 56 56 56 56 56 58 56 56 54 51 52 50 50
49 53 54 55 57 57 57 56 57 58 57 57 57 57 56 56 56 55 55 55 56 55 56 56 57 57 55 53 52 50 50 51
49 51 53 53 54 56 56 56 57 57 57 56 56 55 54 54 55 55 54 57 56 55 55 55 55 54 53 54 54 52 52 50
48 50 53 53 53 56 56 57 57 56 57 56 56 55 55 54 53 53 55 55 56 54 54 54 55 55 54 55 55 54 54 53
48 50 52 53 55 55 56 56 56 56 57 56 55 54 54 53 52 52 53 54 56 54 55 54 54 55 56 56 56 55 55 53
47 49 51 52 53 54 56 55 55 56 56 56 55 54 53 52 50 49 51 53 55 55 55 56 56 55 56 57 56 56 56 54
47 48 50 53 53 53 54 55 55 55 56 55 55 54 54 52 50 48 49 52 54 56 55 57 56 56 57 57 57 56 56 55
47 47 48 52 53 53 54 54 53 56 55 56 55 55 54 54 52 49 49 52 53 54 56 55 56 55 55 56 56 55 55 55
46 47 47 52 53 54 55 55 54 55 56 56 55 55 55 54 54 51 50 50 52 54 55 55 55 55 54 54 53 54 54 54
46 46 47 49 53 54 54 55 55 55 55 56 56 55 55 55 54 54 53 51 51 53 54 55 55 54 53 52 52 52 52 52
45 46 47 47 50 53 54 54 55 55 55 55 55 55 56 55 54 53 54 54 53 53 54 53 55 54 53 52 51 50 51 51
44 46 47 48 48 50 52 53 53 53 55 54 54 54 54 54 55 54 53 53 55 55 54 53 53 53 52 52 51 51 51 52
41 45 47 47 48 50 51 52 53 52 55 54 54 54 54 54 54 55 55 54 53 54 55 53 53 53 52 51 51 51 51 51
42 42 41 44 49 49 49 51 52 52 52 54 54 55 55 55 54 55 55 55 54 54 54 54 53 52 52 52 51 51 51 51
44 46 48 48 48 50 51 51 51 52 51 51 52 54 55 55 55 55 55 55 54 54 54 54 54 53 52 50 51 51 51 51
46 47 47 47 47 48 49 50 52 53 51 51 50 51 54 55 55 55 55 55 55 54 54 54 53 54 52 51 50 52 52 52
46 46 45 44 45 48 49 48 48 49 52 53 53 52 51 52 54 55 55 55 55 55 55 54 54 54 53 51 49 49 51 51

GFSFLT1_sfc_30mbdewp_078.txt.gz
Dewpoint
51 55 58 58 57 56 56 57 57 58 60 60 61 61 61 61 61 60 60 58 55 52 53 55 52 49 51 53 52 50 49 48
53 55 58 57 56 56 56 57 58 58 58 58 58 58 59 59 59 58 58 58 57 54 53 57 54 53 53 53 51 49 48 48
53 55 57 56 56 56 56 56 57 56 57 57 57 58 58 58 58 57 57 57 56 56 54 57 57 55 55 52 50 50 49 48
53 54 55 56 56 56 56 56 57 57 57 57 57 57 57 57 57 57 57 57 56 56 57 57 58 56 54 53 51 50 48 49
52 53 55 55 56 57 57 56 57 57 57 56 56 55 54 56 56 57 56 56 56 56 56 57 57 56 55 54 54 51 50 48
52 53 54 55 56 56 56 56 57 57 57 56 55 55 54 55 56 55 55 56 57 56 56 56 56 55 54 55 55 53 52 51
51 53 53 54 55 55 56 55 56 57 56 56 55 54 54 54 54 54 54 55 56 56 56 56 56 55 53 54 56 54 52 52
50 52 52 52 54 55 55 56 55 56 57 56 56 55 55 53 53 53 53 53 55 55 55 55 55 56 55 55 55 54 54 52
49 51 52 53 54 55 55 55 55 56 57 56 55 55 54 54 53 52 52 53 54 55 55 55 54 55 56 56 56 55 55 54
49 50 51 53 53 54 55 54 54 55 56 56 55 55 54 53 52 52 51 53 54 56 55 55 55 55 55 56 56 55 56 55
48 50 51 52 53 54 53 53 54 55 56 56 55 55 54 53 52 50 50 51 53 54 55 55 56 55 55 56 55 56 55 55
47 49 51 53 53 53 54 53 53 54 55 56 55 55 55 54 53 51 49 49 52 53 54 55 55 56 55 55 55 54 54 54
47 48 51 52 53 54 54 54 54 54 55 55 55 55 55 55 54 54 52 49 50 52 53 54 54 54 54 54 54 53 53 53
46 47 49 52 53 53 54 54 54 54 55 55 55 55 55 55 54 55 54 52 51 50 52 52 53 54 54 53 53 52 51 52
46 47 47 48 51 53 54 54 55 55 55 55 54 55 55 55 55 55 54 54 54 53 52 52 52 52 54 53 53 52 51 50
47 47 48 51 52 52 51 53 54 54 54 54 54 54 54 54 54 54 55 54 53 53 54 54 53 53 53 53 53 52 51 51
45 45 45 46 49 50 51 53 53 53 53 54 55 54 54 54 54 53 53 54 55 54 53 54 54 54 53 52 52 52 51 51
42 42 42 43 45 46 46 47 49 52 53 53 53 54 55 55 54 54 53 54 55 54 54 54 53 54 53 51 50 52 52 51
39 39 39 38 42 42 43 43 44 45 45 46 46 46 48 51 55 55 55 54 55 54 54 54 54 54 53 52 50 51 51 52

GFSFLT1_sfc_30mbdewp_084.txt.gz
Dewpoint
30 48 54 56 56 56 57 56 57 59 61 62 61 60 59 59 60 61 60 60 62 60 58 56 56 53 52 50 49 52 52 52
32 51 55 55 55 56 56 55 56 58 58 59 60 59 59 59 60 61 61 60 61 59 55 54 54 53 51 50 49 51 51 52
47 53 55 55 55 55 55 55 56 57 57 58 59 59 60 60 60 60 59 58 57 55 54 53 51 51 51 50 48 50 50 52
50 53 54 55 54 54 54 54 55 56 58 57 58 59 59 59 60 59 58 57 55 54 52 51 49 50 50 50 49 48 50 50
51 54 54 55 55 55 54 54 54 55 57 57 56 56 56 57 58 59 57 56 54 54 52 50 49 49 50 51 50 48 50 49
49 53 54 55 55 54 54 54 54 57 57 57 57 56 56 57 58 58 58 57 55 55 55 52 52 52 53 53 52 50 50 49
51 53 54 54 54 53 54 54 54 55 56 56 56 55 56 56 56 56 57 57 57 56 56 55 55 54 55 54 53 52 50 49
51 53 54 53 53 53 53 54 53 55 55 55 55 55 56 56 56 56 56 56 56 57 56 55 56 56 56 55 54 53 52 50
46 52 53 53 53 53 53 53 53 54 56 55 54 54 55 56 56 56 56 56 56 57 57 57 56 57 57 55 55 54 54 52
47 52 53 52 52 53 53 53 53 54 55 55 54 54 53 54 55 55 56 57 57 57 57 57 57 57 55 56 55 54 55 54
49 52 53 53 53 53 53 54 54 54 56 55 55 55 54 54 54 54 54 55 55 56 56 56 56 56 56 54 54 55 54 55
50 51 52 53 53 53 53 54 54 55 55 55 55 55 55 54 54 53 53 53 54 55 55 56 55 55 55 55 54 54 53 53
50 51 52 52 52 52 52 54 54 54 56 56 56 55 55 54 54 53 52 52 53 54 55 55 55 55 55 55 55 55 54 54
51 51 51 51 52 51 52 53 53 54 55 56 55 55 55 54 54 52 51 51 51 53 54 54 55 55 55 54 54 54 54 54
51 51 52 52 52 52 52 53 53 54 54 55 54 54 55 55 55 54 52 51 50 51 52 53 53 54 55 55 55 54 54 54
47 48 50 51 52 53 53 54 54 54 54 54 54 54 55 54 54 54 55 53 52 50 50 51 52 53 53 54 54 54 54 54
42 43 44 45 46 46 47 48 51 55 54 54 54 54 54 54 54 54 54 54 54 53 52 51 50 51 51 50 53 53 53 53
38 39 40 40 40 40 41 42 45 46 45 45 46 50 53 54 54 54 54 54 54 54 54 54 53 53 50 49 49 51 51 52
34 36 36 36 37 37 37 37 37 37 38 38 40 41 43 44 46 47 50 52 54 54 54 54 54 39 36 38 42 48 51 52

GFSFLT1_sfc_30mbdewp_087.txt.gz
Dewpoint
28 30 42 53 56 58 59 60 60 61 61 61 61 60 60 60 60 60 60 61 62 61 60 59 59 57 54 53 53 54 54 53
29 31 46 54 57 57 58 59 59 60 60 60 59 58 59 59 60 60 60 61 62 61 60 58 58 57 53 53 54 54 53 53
30 43 51 54 55 57 57 58 58 58 59 60 60 60 60 60 60 60 60 60 62 60 58 58 57 57 54 52 53 53 53 53
29 45 51 54 55 56 56 56 56 57 57 58 59 59 59 59 59 60 60 60 61 59 58 57 57 56 54 52 53 52 52 53
31 43 51 53 54 56 56 56 56 56 57 56 56 56 56 57 59 59 58 59 60 57 58 57 55 54 54 53 52 52 53 52
32 45 51 54 55 54 55 55 55 55 57 57 56 56 57 58 59 57 56 56 56 56 56 53 52 53 54 53 51 52 54 52
37 50 53 54 54 54 55 55 55 55 56 57 56 56 57 57 57 56 55 55 56 53 53 52 52 52 53 53 53 52 53 53
48 51 52 54 54 54 55 54 54 55 56 56 56 57 57 57 56 56 55 54 55 56 54 54 54 55 54 54 54 52 52 52
46 51 53 53 53 53 54 54 53 54 55 55 56 56 57 57 56 57 57 56 55 55 55 54 56 55 55 55 54 53 53 53
43 50 53 53 53 53 53 53 53 54 54 55 55 55 56 56 57 57 57 57 57 56 55 53 53 52 53 54 55 54 54 54
42 48 53 53 53 53 53 53 53 54 54 55 54 54 54 56 56 56 57 57 57 57 56 55 55 54 52 52 54 55 52 52
49 51 52 52 53 53 53 53 52 54 54 54 55 54 54 54 54 55 56 56 57 57 57 57 56 55 53 52 51 54 55 54
51 51 51 52 52 53 53 53 53 53 54 55 55 56 55 54 54 54 55 55 56 56 57 56 56 56 56 55 52 51 54 54
51 51 51 51 52 52 53 53 55 55 54 55 55 55 55 55 55 54 54 54 54 55 55 56 56 56 56 56 55 54 54 54
48 50 51 51 52 52 52 54 54 55 55 55 55 55 55 55 55 54 53 53 53 54 54 55 55 55 55 55 55 55 55 55
42 44 47 50 52 52 52 53 54 54 54 54 53 54 55 55 55 55 54 53 52 53 53 54 54 55 55 55 55 55 54 54
38 39 41 42 44 46 46 49 54 54 54 54 55 55 55 55 55 55 55 55 53 52 52 52 53 53 52 53 54 54 54 54
35 36 37 38 39 39 41 41 42 43 43 43 46 50 50 51 54 54 55 55 55 54 53 52 52 48 39 44 48 53 53 53
32 33 35 35 35 35 36 36 36 36 37 37 39 41 42 42 43 45 47 47 44 46 43 47 39 34 34 35 38 47 49 51

GFSFLT1_sfc_30mbdewp_090.txt.gz
Dewpoint
26 27 28 31 42 50 56 61 63 63 64 63 62 62 62 62 62 61 61 62 62 62 61 61 60 59 59 59 57 56 54 53
27 28 30 35 44 52 55 59 62 62 62 61 60 60 60 60 61 61 61 62 62 62 61 60 59 58 58 59 56 55 53 53
25 28 30 43 45 52 54 58 60 62 61 60 59 59 60 60 60 61 60 61 61 62 60 59 59 58 58 58 56 55 53 54
23 26 28 42 48 52 54 57 60 61 59 58 59 60 60 60 60 60 60 60 61 61 60 59 59 58 57 57 56 54 53 54
26 25 27 40 48 52 54 56 59 59 58 57 57 56 57 59 59 60 60 60 60 60 59 59 59 58 57 57 57 55 54 53
29 27 28 37 48 53 56 57 57 57 57 56 56 55 55 56 58 59 59 60 60 59 59 59 58 58 58 56 56 55 54 53
33 31 32 42 51 55 56 56 56 56 57 55 55 54 55 56 58 58 57 57 59 59 59 59 58 58 57 56 56 56 55 54
41 41 44 47 53 54 56 56 55 56 56 55 55 55 56 56 57 56 55 55 55 56 57 57 57 57 57 56 55 55 55 54
44 43 48 49 53 53 55 55 55 55 55 55 55 56 56 56 57 57 55 55 55 55 55 55 56 56 56 55 55 54 55 55
45 44 48 50 53 53 55 55 54 54 54 55 55 56 56 57 57 57 56 56 56 56 55 55 55 55 55 55 55 53 54 54
49 43 47 51 53 53 55 55 54 54 54 55 55 55 56 57 57 57 57 56 56 55 55 55 54 54 53 54 54 54 54 54
50 49 49 51 53 53 55 54 53 53 54 54 54 54 55 56 56 57 57 57 56 55 54 53 51 51 51 50 50 52 54 53
51 50 51 52 52 53 54 54 53 54 54 54 54 54 54 54 54 56 57 57 57 57 56 55 55 54 53 51 49 49 53 53
44 50 51 52 52 53 53 53 53 54 54 53 54 54 54 55 55 55 56 57 57 57 57 56 56 55 54 53 52 49 49 50
41 42 48 51 52 53 53 54 53 53 54 53 54 54 55 55 55 55 55 55 55 56 56 56 56 57 56 55 53 52 52 50
37 38 40 43 52 53 53 53 52 54 54 53 53 55 55 55 55 55 55 54 54 55 55 55 56 56 56 56 56 56 55 54
34 36 37 39 41 47 48 52 53 52 52 52 53 53 53 54 54 54 55 54 54 54 54 55 55 54 43 48 55 55 55 55
32 34 34 35 37 39 41 42 44 44 44 44 46 48 49 50 54 54 54 54 54 53 53 53 45 39 36 39 44 53 55 55
31 31 33 33 34 34 36 36 37 37 37 38 40 41 42 43 44 45 43 43 42 41 40 38 36 34 35 37 40 47 51 39

GFSFLT1_sfc_30mbdewp_093.txt.gz
Dewpoint
22 24 24 22 24 33 44 55 65 65 65 64 64 64 64 64 64 64 63 63 62 62 62 62 62 61 61 61 60 60 58 54
19 22 26 26 26 34 45 52 63 64 63 62 62 63 62 63 62 63 63 63 62 61 61 62 62 60 60 60 60 58 57 54
15 17 24 28 30 35 46 51 58 63 62 62 62 61 61 61 62 62 62 62 62 61 61 61 60 59 59 59 59 57 57 55
19 19 21 28 32 39 45 50 56 62 63 62 60 61 60 60 60 60 61 61 62 62 61 61 60 59 59 58 59 57 55 54
31 25 23 25 31 42 46 50 56 61 61 58 59 58 58 59 59 60 61 61 61 61 61 60 59 59 58 58 59 58 55 53
35 29 27 25 29 41 48 50 55 59 60 57 58 58 57 57 58 59 60 60 61 61 60 60 59 59 59 59 58 57 55 54
38 34 31 26 28 45 51 52 54 57 58 57 57 56 55 53 57 59 60 60 60 60 60 59 59 59 59 59 59 57 55 55
41 39 32 30 34 48 54 54 54 56 57 57 57 56 55 54 56 58 58 58 58 59 59 59 59 59 58 59 58 57 57 56
43 41 42 41 44 54 54 53 53 55 57 57 56 55 55 55 58 58 57 56 57 59 59 59 59 59 59 59 58 58 57 56
47 45 43 46 52 54 55 54 54 55 56 56 55 55 55 57 57 57 56 56 56 56 57 58 59 58 58 58 57 56 56 56
48 49 43 48 54 54 55 55 54 54 55 55 55 55 56 57 58 57 56 56 56 55 56 56 57 58 58 57 56 56 56 56
46 50 49 49 54 54 55 55 54 54 54 54 55 54 55 57 57 57 56 56 56 55 56 56 56 56 57 57 56 55 55 55
43 45 52 53 53 54 54 55 54 54 53 54 54 54 55 55 56 57 57 55 55 55 55 54 54 53 53 52 52 52 52 52
40 41 44 51 53 53 54 54 54 54 53 54 54 54 54 54 55 57 57 56 55 55 54 54 52 52 52 52 51 51 51 51
37 38 40 43 49 53 54 54 54 53 53 53 53 54 55 55 55 56 57 57 57 57 56 56 55 54 53 53 52 51 51 51
35 36 36 38 40 44 53 54 54 54 54 53 53 54 54 55 55 55 55 56 57 57 57 56 56 56 55 54 53 53 52 50
32 34 34 35 37 39 43 49 53 53 53 53 53 53 54 54 55 55 55 55 55 55 55 56 56 43 39 46 54 54 54 54
31 31 33 33 34 36 37 41 44 45 45 45 47 49 50 50 53 52 52 54 54 51 50 44 40 38 37 40 46 53 55 51
30 30 32 32 33 34 35 35 37 38 38 39 41 43 43 43 44 42 41 40 40 40 39 38 37 34 36 40 44 47 40 37

GFSFLT1_sfc_30mbdewp_096.txt.gz
Dewpoint
23 26 25 27 27 28 43 66 67 66 66 65 65 64 63 65 65 64 64 65 64 64 63 63 63 62 62 61 60 61 59 59
17 24 28 29 32 32 42 60 67 66 65 64 64 63 63 63 65 64 64 64 63 63 62 62 62 61 61 61 60 59 59 59
15 16 27 31 32 33 42 56 66 65 64 64 63 63 63 63 63 64 64 63 63 62 62 62 62 61 60 60 59 58 58 59
19 21 25 29 34 37 42 49 65 65 64 63 62 62 63 63 62 62 62 63 63 62 62 61 61 60 60 60 59 57 57 58
35 33 32 29 37 40 40 46 52 65 63 62 62 61 60 60 60 61 62 61 62 62 62 61 61 60 60 59 60 58 57 55
38 38 37 33 31 43 44 46 50 63 62 62 61 60 60 59 60 60 60 60 61 61 61 61 61 60 60 59 59 58 58 56
41 40 38 35 32 41 48 49 53 62 62 62 61 60 59 58 58 60 60 60 60 61 61 61 60 60 59 59 60 59 58 57
47 41 40 36 34 40 52 51 53 60 61 61 61 60 59 57 59 59 60 59 59 60 60 60 59 59 59 60 59 58 58 57
47 49 49 42 40 52 53 53 52 58 59 60 59 58 58 57 57 59 59 58 58 60 60 60 59 59 59 59 59 58 58 58
46 48 51 45 55 56 55 53 53 56 58 58 57 58 56 56 58 58 58 57 57 59 59 59 59 59 59 59 59 57 57 58
45 46 48 53 55 55 55 56 56 57 57 57 57 57 56 58 58 57 56 56 56 57 57 59 59 59 59 59 58 58 57 58
42 43 45 48 54 54 55 56 56 56 56 56 56 55 56 57 57 57 56 56 56 56 56 56 58 58 58 58 58 57 57 57
39 40 40 42 47 53 54 55 56 56 55 55 56 56 57 57 57 57 56 55 56 56 56 56 56 57 58 57 57 57 57 56
37 37 38 38 41 46 54 55 55 55 55 55 55 56 56 56 57 56 56 55 55 55 55 54 54 54 54 56 55 55 55 55
34 35 35 36 37 39 43 54 55 55 54 55 55 55 55 55 56 57 56 55 55 54 54 54 53 53 53 53 53 53 53 52
32 32 33 34 35 36 38 42 55 55 54 54 54 55 55 55 57 57 57 56 55 55 55 54 54 53 53 52 52 52 52 52
30 30 32 32 33 34 36 38 43 55 53 53 54 55 56 56 56 56 57 57 57 56 56 56 54 42 40 49 53 53 53 53
28 29 30 31 32 32 34 35 39 43 45 46 48 49 50 49 49 49 49 48 46 44 42 41 38 37 37 42 52 54 53 51
27 28 29 30 31 31 32 33 34 36 37 39 41 42 42 41 41 40 39 39 38 38 37 37 36 36 39 42 45 42 38 36

GFSFLT1_sfc_30mbdewp_099.txt.gz
Dewpoint
23 24 26 29 29 29 52 66 66 66 66 66 65 65 66 65 64 65 65 65 64 63 63 63 63 62 62 61 61 61 60 60
18 20 27 26 29 29 52 66 66 66 65 64 64 63 64 65 64 64 64 65 64 63 63 63 62 62 60 61 60 60 59 60
12 14 16 25 30 32 51 65 66 65 65 64 64 64 64 63 65 64 63 64 64 63 63 62 62 61 61 60 60 59 59 59
11 15 16 19 30 32 58 65 66 65 65 64 63 63 63 63 63 64 64 63 63 62 63 62 62 61 60 60 60 59 57 59
27 36 37 35 33 35 58 66 65 64 64 63 62 61 60 61 62 62 63 63 63 62 62 62 62 61 60 60 60 59 58 56
46 47 41 39 38 37 54 65 64 64 63 63 62 61 60 61 62 61 62 62 63 62 62 62 61 61 60 60 60 59 58 57
47 48 50 51 49 38 44 62 64 63 62 62 61 60 61 59 60 60 60 61 61 61 61 61 61 61 60 60 60 59 58 57
46 47 48 50 50 45 46 51 63 62 62 62 61 61 60 59 59 59 59 59 59 60 61 61 61 60 60 60 60 59 58 57
44 45 47 48 53 48 48 58 62 62 62 61 61 61 60 59 59 59 59 59 58 58 60 60 60 60 60 60 59 59 59 58
42 43 45 45 54 55 55 55 59 61 60 61 61 61 60 59 59 59 59 59 59 60 60 60 60 60 60 59 59 59 59 58
39 40 42 43 46 53 55 56 56 58 59 59 59 58 58 58 58 58 57 57 57 57 59 59 59 59 59 59 59 59 58 58
36 37 39 40 42 44 49 55 56 57 58 57 57 57 58 58 57 56 56 56 56 56 56 57 58 58 59 58 58 58 58 57
33 34 35 37 38 39 41 47 56 57 57 57 56 57 58 57 57 56 56 56 56 56 56 56 57 58 58 58 58 58 57 57
32 32 33 34 35 37 38 40 45 56 56 56 56 56 57 57 57 56 56 56 56 56 56 55 55 57 58 58 58 57 57 57
29 30 31 32 33 34 36 38 41 47 56 56 56 56 56 57 56 56 56 56 55 55 55 54 54 54 56 57 56 57 56 56
28 28 29 30 31 33 35 36 38 42 55 55 56 55 56 56 56 56 56 55 55 55 54 54 54 53 52 54 54 55 54 54
27 27 28 29 30 31 33 34 35 38 43 51 55 55 56 56 57 57 56 55 55 55 54 54 48 43 43 50 54 53 53 53
25 26 27 29 30 31 31 32 33 34 35 39 44 47 47 47 47 46 45 43 42 42 41 41 39 39 39 44 51 53 52 52
24 25 26 28 30 30 31 31 31 31 33 33 36 39 39 39 39 38 37 36 36 35 35 36 36 36 40 42 43 40 37 35

GFSFLT1_sfc_30mbdewp_102.txt.gz
Dewpoint
21 22 23 25 26 30 58 64 66 66 66 66 65 65 65 65 65 66 65 65 64 64 63 63 62 62 62 61 60 60 59 59
19 20 25 25 28 28 47 62 65 66 66 65 64 64 65 64 65 65 65 64 64 63 63 62 63 62 61 61 60 60 59 60
11 12 14 23 25 29 42 61 65 66 66 65 64 64 64 64 64 64 65 65 64 63 63 62 62 62 61 61 60 59 59 60
8 10 12 17 22 27 39 56 64 65 65 65 64 63 63 63 64 64 64 65 64 63 63 63 62 62 61 60 60 59 58 59
23 38 45 47 43 33 39 54 64 65 65 64 63 62 61 62 63 63 63 63 64 63 63 62 62 62 61 61 61 59 58 57
48 48 49 50 51 50 56 59 64 64 65 64 63 62 62 62 62 62 63 63 63 62 63 62 62 62 61 61 60 59 59 57
45 47 48 49 52 55 55 64 64 64 64 63 62 62 61 61 61 61 61 62 62 62 62 62 61 61 61 61 60 60 59 58
42 44 45 46 48 53 50 64 64 64 63 62 62 61 60 60 60 60 60 60 61 61 61 61 61 61 61 60 60 59 59 58
39 41 42 43 44 47 55 60 63 63 62 62 61 61 60 60 60 60 60 59 59 60 61 61 61 60 60 60 60 59 59 58
36 37 39 41 41 43 46 55 58 62 61 61 61 60 60 60 59 59 59 59 59 59 60 59 60 60 60 60 59 59 59 58
33 35 36 37 39 41 43 46 51 58 60 61 61 60 60 59 59 59 59 58 59 58 58 59 59 60 60 60 59 59 59 58
31 32 33 35 36 37 40 42 45 50 59 59 59 59 59 59 58 58 58 57 57 57 58 58 59 59 59 59 59 59 58 58
29 30 31 32 33 34 37 39 41 44 53 57 58 58 58 57 57 56 56 56 56 56 56 56 56 57 58 58 58 58 58 57
27 28 29 30 31 33 34 37 39 41 46 57 57 58 57 57 56 56 55 55 55 56 56 55 55 56 57 58 58 58 58 58
26 27 28 29 31 32 33 35 37 39 44 56 56 57 57 57 56 55 55 55 55 55 55 55 55 54 55 57 57 57 57 57
25 26 27 28 30 31 32 33 35 37 39 43 49 57 57 57 56 55 55 56 55 55 55 54 54 51 48 51 57 57 57 57
24 25 26 27 28 29 31 32 33 35 35 36 39 45 55 56 56 56 55 52 53 53 53 51 48 45 42 48 53 55 56 55
23 24 25 27 28 28 28 30 32 32 32 33 34 37 41 43 44 43 42 41 41 40 40 40 40 39 41 45 50 51 48 49
22 24 25 28 28 27 27 27 28 30 30 31 32 33 34 35 36 35 35 35 34 34 34 35 35 36 37 41 44 40 38 38

GFSFLT1_sfc_30mbdewp_108.txt.gz
Dewpoint
15 16 18 22 23 25 27 43 63 65 65 64 64 64 64 64 64 64 64 64 65 65 64 63 63 62 61 61 60 60 59 59
14 15 16 19 23 24 26 28 47 64 65 64 64 62 64 64 64 64 65 65 64 64 63 63 62 61 61 61 60 59 59 59
44 42 28 23 20 20 24 27 30 61 62 64 64 64 64 64 64 64 65 64 64 63 63 62 62 61 61 61 60 59 59 59
44 44 46 48 49 50 47 30 34 55 62 64 64 64 64 63 63 63 64 64 64 63 63 63 62 62 61 61 61 60 58 59
42 42 43 45 46 47 49 53 42 56 63 63 62 62 61 61 62 63 63 64 64 64 63 63 62 62 62 61 61 60 59 58
39 40 40 42 43 43 45 48 53 50 62 62 63 62 61 61 63 62 63 63 64 64 63 63 63 62 62 62 61 60 59 58
36 37 38 39 40 41 43 47 55 49 61 63 63 62 61 61 62 62 62 63 63 63 63 63 63 62 62 62 61 61 60 59
34 34 35 37 39 39 41 44 50 57 61 63 63 62 61 61 61 61 61 62 62 63 62 62 62 62 62 62 61 61 60 59
31 33 33 35 37 38 39 42 45 49 61 62 63 62 62 61 61 61 61 61 61 62 62 62 62 62 62 62 61 61 60 60
29 30 32 33 35 37 39 40 42 46 50 62 63 62 62 61 61 61 61 61 61 61 61 61 62 62 62 61 61 60 60 60
29 29 31 32 33 35 38 39 41 43 46 51 62 61 61 60 60 61 61 60 60 61 60 61 61 61 61 61 60 60 60 60
27 28 30 31 32 33 35 37 39 41 44 48 58 60 60 60 60 60 60 59 59 60 60 59 59 60 60 60 60 60 59 59
27 28 28 29 29 31 31 35 37 39 43 47 58 59 59 59 58 58 58 58 58 58 58 58 58 58 59 59 59 59 58 58
24 24 25 27 27 29 29 31 34 37 39 42 46 50 58 58 57 57 57 57 57 58 58 57 57 57 57 57 56 56 57 58
23 23 24 26 26 27 28 28 31 34 36 38 39 41 49 56 56 56 56 56 56 56 55 55 55 55 55 53 52 52 54 56
22 22 24 25 25 25 25 27 28 31 34 34 35 37 39 44 51 55 55 55 55 55 55 55 53 49 43 44 47 49 51 53
21 21 23 25 24 24 24 25 27 28 31 32 33 34 34 35 36 38 39 40 41 43 44 45 43 41 37 40 43 50 49 47
20 21 23 25 25 25 24 24 26 26 27 29 31 32 32 32 32 32 33 33 34 34 35 37 36 35 35 39 42 44 43 41
20 21 22 24 26 24 24 23 23 24 25 27 28 30 31 31 30 30 30 30 30 31 31 32 33 33 34 36 38 38 37 35

GFSFLT1_sfc_30mbdewp_111.txt.gz
Dewpoint
15 19 19 21 23 28 31 33 41 60 64 65 65 65 65 64 64 63 63 64 64 65 65 64 64 63 63 62 62 62 62 61
19 39 45 41 33 31 29 30 36 49 60 62 62 62 63 63 64 63 63 64 64 64 64 64 64 63 62 62 61 61 60 61
41 44 45 46 48 49 49 47 35 36 53 60 61 61 62 63 63 63 63 64 64 64 64 63 63 63 62 61 61 60 60 60
41 41 42 43 44 45 46 48 50 50 38 56 61 62 63 63 63 63 63 64 64 64 63 63 63 62 61 61 61 60 59 59
36 37 38 40 42 43 44 45 47 49 51 46 59 59 59 60 62 63 63 64 63 63 63 63 62 62 62 62 62 61 60 58
33 33 35 36 38 39 41 43 46 49 52 51 59 60 60 60 62 63 63 63 63 63 63 63 62 62 63 62 62 61 61 59
30 31 32 34 35 37 39 41 43 48 54 53 59 60 60 60 62 62 62 63 63 63 63 62 62 62 62 62 62 62 61 60
29 29 31 32 34 36 37 40 41 45 50 53 59 61 61 61 61 61 61 61 62 62 63 62 62 62 62 62 62 62 61 60
28 28 30 31 33 35 36 39 41 44 47 53 58 60 60 62 61 61 61 61 61 62 63 63 63 63 62 62 62 61 61 61
28 28 29 30 31 33 35 38 40 42 45 49 58 60 61 61 62 62 62 62 62 63 62 62 62 62 62 61 61 61 61 61
27 27 29 29 31 32 34 36 38 41 43 47 51 62 62 62 62 62 62 62 61 62 62 61 62 62 62 61 61 61 61 60
26 27 28 30 31 31 31 32 35 39 41 44 51 61 61 61 61 62 62 61 61 61 61 62 61 61 61 61 61 60 60 60
26 26 27 28 28 29 30 31 32 36 40 42 45 50 60 60 60 60 60 60 61 60 61 60 60 60 60 60 59 59 59 59
24 25 25 26 26 27 28 29 31 33 37 39 41 43 48 58 58 58 58 58 58 59 59 59 58 58 58 58 58 58 58 58
22 22 24 24 24 25 26 27 30 31 34 36 37 38 40 45 54 55 56 57 57 57 57 56 56 54 52 52 53 53 54 54
21 22 23 24 24 24 24 25 27 30 31 32 34 36 35 38 39 42 43 43 43 44 48 46 45 40 38 40 46 49 51 52
21 21 22 23 24 24 23 24 26 27 29 30 32 34 34 33 34 35 36 36 36 36 36 36 35 35 35 36 39 46 50 49
20 21 22 23 24 25 24 24 25 25 26 28 30 30 32 32 32 32 31 32 32 32 32 33 32 32 34 35 37 42 41 39
19 19 20 22 23 25 23 22 23 24 24 26 27 28 29 31 31 30 31 30 30 29 29 30 29 30 32 34 36 36 34 34

GFSFLT1_sfc_30mbdewp_114.txt.gz
Dewpoint
13 18 25 35 37 40 39 34 34 37 53 60 60 62 63 62 61 62 63 65 66 66 63 65 66 65 65 65 64 63 62 62
37 40 41 42 43 44 45 47 47 38 37 51 54 59 61 61 62 62 62 64 65 64 63 64 65 65 64 64 64 64 63 63
37 38 40 41 42 43 45 45 46 48 42 36 51 54 58 59 61 63 63 64 64 64 63 64 65 64 64 64 63 63 63 63
35 36 37 38 39 41 42 43 44 45 47 48 38 53 55 57 61 63 64 63 63 65 64 64 64 64 63 63 63 62 60 62
31 32 34 35 36 38 40 42 43 44 46 47 47 42 51 56 59 62 63 64 64 64 64 64 64 64 63 63 63 62 62 59
30 30 31 33 35 36 38 40 41 43 46 47 49 45 50 53 57 59 61 63 64 64 64 64 64 63 63 63 62 62 62 60
29 30 30 31 33 34 35 37 38 40 43 46 49 52 49 52 53 58 60 63 63 64 64 64 64 63 63 63 63 62 62 61
28 29 29 30 31 32 33 34 36 37 41 44 48 52 53 55 53 57 59 62 62 63 63 63 63 63 63 63 62 62 62 61
27 28 29 29 30 31 32 33 34 36 40 43 46 51 54 55 56 55 58 61 61 62 63 63 63 63 63 63 62 62 62 62
26 27 28 28 28 29 31 32 33 35 39 42 46 51 57 57 57 58 59 61 61 63 63 63 63 63 63 63 62 62 62 62
26 26 27 28 28 29 30 31 32 34 38 42 45 51 57 58 60 61 60 62 62 62 62 62 62 62 63 63 62 62 61 62
26 27 27 28 28 28 29 30 31 33 38 42 45 50 59 60 61 61 61 62 61 62 63 62 62 62 62 62 62 61 61 61
26 26 26 27 27 27 28 29 31 32 36 41 42 45 50 61 60 61 62 61 62 62 62 61 61 61 61 61 61 60 60 60
25 25 25 25 26 26 26 27 30 32 34 37 40 40 42 45 56 59 60 60 60 60 61 61 61 60 60 60 60 60 60 60
24 24 24 25 26 26 25 26 28 30 32 33 36 36 38 40 42 45 46 50 55 52 50 45 44 43 44 48 54 56 56 56
23 23 24 25 26 25 25 25 27 29 30 31 32 35 35 35 36 38 39 40 40 40 38 38 37 36 36 39 46 51 52 53
22 23 24 24 25 26 25 25 26 27 28 29 30 32 32 33 33 34 33 34 34 34 34 33 34 34 35 37 42 48 47 45
21 23 23 24 26 27 26 26 27 26 26 27 28 30 31 31 32 31 30 31 31 31 31 31 31 32 34 36 39 38 37 36
20 21 22 23 24 25 24 24 24 25 25 27 28 28 28 30 30 29 30 30 29 29 29 29 29 30 32 34 34 33 32 32

GFSFLT1_sfc_30mbdewp_117.txt.gz
Dewpoint
31 36 39 40 41 41 42 42 45 45 40 45 54 59 61 64 63 61 63 66 67 66 64 65 66 65 65 65 64 65 63 62
34 35 37 39 41 41 41 43 45 46 46 37 42 55 58 61 64 63 62 63 66 66 65 65 66 65 65 66 64 64 63 63
32 33 35 37 38 40 42 42 42 44 44 45 41 42 51 58 60 62 64 64 65 66 65 63 66 65 65 65 64 64 64 64
31 31 32 34 35 38 39 40 41 43 44 45 45 47 44 53 59 60 62 64 65 66 66 64 64 65 64 64 64 63 62 64
30 31 31 32 33 36 37 38 40 41 43 44 45 45 43 45 56 60 60 64 64 66 66 66 65 65 64 63 64 63 62 61
29 30 30 31 31 33 35 37 38 40 42 43 45 46 47 48 47 57 60 62 64 65 66 66 65 65 64 63 63 63 63 61
28 28 29 29 31 31 33 35 36 38 39 41 43 45 47 48 50 51 58 60 62 65 65 65 65 65 64 64 64 63 63 62
27 27 28 28 29 30 31 32 33 35 37 39 40 43 46 48 50 52 56 59 61 63 64 64 64 65 64 64 63 63 63 62
27 27 27 27 28 29 29 30 31 33 34 36 38 41 44 47 49 52 54 57 60 63 64 63 64 64 64 64 63 63 63 62
26 26 26 26 28 28 29 29 30 31 33 35 37 40 43 46 50 54 55 57 59 62 63 63 63 63 63 63 62 62 62 63
26 26 26 27 29 29 28 28 29 30 32 34 37 40 44 47 52 55 57 58 59 61 63 63 63 63 63 63 62 62 62 62
28 28 27 28 28 28 27 28 28 30 32 35 37 42 45 48 55 58 59 58 58 60 62 62 62 62 63 62 62 62 61 61
27 28 28 28 28 28 28 28 28 30 32 34 39 40 43 46 52 57 58 58 58 59 60 61 62 62 62 62 61 61 61 59
24 26 27 28 28 28 27 28 28 30 32 33 36 37 39 39 42 45 48 57 57 55 58 56 58 60 61 61 61 60 60 61
24 25 27 28 29 28 28 27 28 29 31 31 33 34 35 36 37 38 40 42 42 42 41 40 40 40 44 50 59 59 59 59
24 25 26 27 28 29 30 28 28 29 29 30 31 32 33 33 33 33 35 35 36 37 38 38 38 38 38 42 51 53 54 54
23 24 24 25 27 29 30 29 28 29 29 29 30 31 30 31 31 30 31 31 32 32 33 33 35 35 37 39 45 44 43 41
20 22 23 24 26 27 28 29 29 28 28 29 29 29 29 30 30 29 29 29 29 30 30 30 30 31 33 34 35 35 34 32
20 21 21 23 23 24 24 24 25 25 26 27 29 29 29 30 29 29 29 29 28 28 28 28 28 29 31 32 32 32 31 29

GFSFLT1_sfc_30mbdewp_123.txt.gz
Dewpoint
34 35 35 36 36 36 36 38 41 42 43 44 45 47 49 53 61 64 64 64 65 64 67 65 66 66 65 64 64 65 64 63
32 33 33 33 33 34 35 35 37 39 40 41 42 43 45 46 50 52 64 63 64 66 65 66 65 64 65 65 64 64 64 64
30 30 31 31 32 32 33 33 34 35 37 39 40 41 43 45 47 50 51 57 65 65 64 63 66 64 63 65 64 64 64 64
29 29 29 29 29 30 31 31 32 33 34 35 38 40 41 43 45 48 50 53 60 64 63 63 64 66 63 63 65 63 62 64
28 27 27 28 28 28 29 29 30 30 32 32 33 35 38 40 42 45 47 50 53 57 63 63 62 64 65 62 65 64 63 61
27 27 27 27 27 27 28 28 29 29 29 30 31 32 36 38 39 41 43 46 50 53 58 62 64 64 65 64 62 65 63 62
27 27 27 26 26 26 27 27 28 28 29 29 30 31 32 34 36 38 40 43 46 50 54 59 61 64 63 64 64 64 64 63
26 26 26 26 26 26 27 27 27 28 28 28 29 30 31 33 34 36 38 41 44 47 52 54 60 61 63 64 64 63 63 62
27 27 27 27 27 28 28 29 28 28 28 29 29 30 32 33 34 36 37 39 42 45 48 52 57 60 61 62 62 62 60 60
28 27 27 28 28 29 30 30 29 29 29 31 31 32 33 34 35 36 37 39 41 43 46 49 54 57 60 59 60 60 61 59
27 27 27 28 29 30 32 30 29 29 30 32 33 34 36 37 38 38 39 41 42 43 45 47 51 55 58 59 59 59 59 62
27 27 28 28 30 30 31 30 29 29 31 32 33 34 35 36 37 39 41 43 44 45 46 48 51 55 58 58 59 58 59 61
27 27 27 27 29 29 30 29 29 30 31 32 32 32 33 34 34 36 38 40 45 48 49 50 53 53 54 55 55 54 49 58
25 26 25 26 28 28 30 29 29 30 31 31 31 31 31 32 33 33 34 35 36 39 40 40 40 42 44 48 51 51 59 60
24 24 24 25 27 27 29 28 29 29 29 30 30 30 31 31 31 31 32 32 32 32 34 34 34 35 38 43 51 58 58 58
23 23 23 24 24 24 26 26 27 28 28 28 29 30 31 31 30 30 29 30 31 30 30 31 32 33 33 36 39 40 41 42
20 20 19 20 20 20 21 22 25 25 26 26 27 28 29 30 30 29 28 28 29 30 29 29 30 31 32 32 32 32 33 34
18 18 19 20 21 20 20 21 22 21 22 23 23 26 26 28 29 29 27 27 27 26 28 28 29 30 31 31 31 30 30 29
18 19 19 20 21 21 20 21 21 21 18 21 20 21 22 24 25 26 28 26 25 25 25 26 27 29 31 30 30 29 28 28